Location: Vancouver
(49.2500°N, 123.1330°W)
Time: 20:19:54
(UTC-07:00)

BREEZE-M DEB (TANK) - Visible Passes

Search period start: 29 April 2017 00:00
Search period end: 09 May 2017 00:00
Orbit: 275 x 13273 km, 49.6° (Epoch: 28 April)

Date Brightness Start Highest point End Pass type
(mag) Time Alt. Az. Time Alt. Az. Time Alt. Az.
29 Apr 9.5 19:51:59 10° WNW 20:29:05 38° WSW 21:52:37 10° SSW visible
30 Apr 9.7 21:00:27 10° WNW 21:33:35 24° W 22:34:29 10° SW visible
01 May 10.0 22:21:38 10° WNW 22:35:08 11° W 22:51:39 10° W visible
03 May 9.6 19:46:50 10° WNW 20:21:49 33° WSW 21:38:25 10° SSW visible
04 May 9.9 20:56:49 10° WNW 21:25:37 20° W 22:15:00 10° WSW visible
07 May 9.8 19:41:41 10° WNW 20:14:13 28° WSW 21:22:33 10° SW visible
08 May 10.1 20:54:24 10° WNW 21:17:20 15° W 21:52:29 10° WSW visible
